{"data":{"norad_id":60342,"intl_designator":"2024-136P","name":"STARLINK-32221","alt_names":[],"object_type":"PAYLOAD","status":"ACTIVE","operator":null,"country":"US","launch_date":"2024-08-02","launch_site_code":"AFETR","launch_vehicle":null,"mission":null,"orbit_class":"UNKNOWN","rcs_meters":null,"size_class":null,"mass_kg":null,"dimensions":null,"purposes":["comms"],"wikipedia_slug":null,"has_3d_model":false,"image_url":null,"decayed_at":null,"tle_current":{"epoch":"2026-05-25T02:20:16.445184Z","epoch_age_seconds":80787,"freshness":"FRESH","line1":"1 60342U 24136P   26145.09741256  .00000384  00000+0  25107-4 0  9996","line2":"2 60342  53.1608  80.7072 0001435  90.5243 269.5922 15.30194231101365","mean_motion":15.30194231,"eccentricity":0.0001435,"inclination_deg":53.1608,"raan_deg":80.7072,"arg_perigee_deg":90.5243,"mean_anomaly_deg":269.5922,"bstar":2.5107e-5,"rev_number":10136,"period_min":94.105700493913,"perigee_km":474.24883617379,"apogee_km":476.21575316136,"semimajor_km":6853.3692946676,"source":"CELESTRAK","updated_at":"2026-05-25T13:38:19.235232Z"}}}